| time (UTC) | temp F | wind direction | speed knots | gust knots | rain 1hr in | rain 24hr in | rain mn in | humidity % | barometer mb |
| 20260510224228 | 67 | 267 | 7.8 | 14.8 | 0.00 | 0.00 | 0.00 | 3 | 1014.7 |
| 20260510223345 | 68 | 290 | 5.2 | 16.5 | 0.00 | 0.00 | 0.00 | 2 | 1014.8 |
| 20260510223227 | 68 | 290 | 5.2 | 16.5 | 0.00 | 0.00 | 0.00 | 2 | 1014.8 |
| 20260510222350 | 69 | 279 | 1.7 | 9.6 | 0.00 | 0.00 | 0.00 | 1 | 1014.9 |
| 20260510222227 | 69 | 279 | 1.7 | 9.6 | 0.00 | 0.00 | 0.00 | 1 | 1014.9 |
| 20260510221357 | 69 | 0 | 0.0 | 7.0 | 0.00 | 0.00 | 0.00 | 2 | 1014.9 |
| 20260510221227 | 69 | 0 | 0.0 | 7.0 | 0.00 | 0.00 | 0.00 | 2 | 1014.9 |
| 20260510220326 | 70 | 320 | 3.5 | 7.0 | 0.00 | 0.00 | 0.00 | 1 | 1015.0 |
| 20260510220227 | 70 | 320 | 3.5 | 7.0 | 0.00 | 0.00 | 0.00 | 1 | 1015.0 |
| 20260510215353 | 69 | 295 | 1.7 | 8.7 | 0.00 | 0.00 | 0.00 | 1 | 1014.9 |
| 20260510215227 | 69 | 295 | 1.7 | 8.7 | 0.00 | 0.00 | 0.00 | 1 | 1014.9 |
| 20260510214334 | 69 | 28 | 0.9 | 9.6 | 0.00 | 0.00 | 0.00 | 1 | 1015.1 |
| 20260510214227 | 69 | 28 | 0.9 | 9.6 | 0.00 | 0.00 | 0.00 | 1 | 1015.1 |
| 20260510213227 | 69 | 320 | 2.6 | 11.3 | 0.00 | 0.00 | 0.00 | 1 | 1015.1 |
| 20260510212227 | 68 | 17 | 3.5 | 13.9 | 0.00 | 0.00 | 0.00 | 2 | 1015.2 |
| 20260510211318 | 69 | 71 | 2.6 | 7.8 | 0.00 | 0.00 | 0.00 | 1 | 1015.2 |
| 20260510211227 | 69 | 71 | 2.6 | 7.8 | 0.00 | 0.00 | 0.00 | 1 | 1015.2 |
| 20260510210418 | 70 | 97 | 0.9 | 8.7 | 0.00 | 0.00 | 0.00 | 1 | 1015.3 |
| 20260510210227 | 70 | 97 | 0.9 | 8.7 | 0.00 | 0.00 | 0.00 | 1 | 1015.3 |
| 20260510205327 | 69 | 301 | 2.6 | 8.7 | 0.00 | 0.00 | 0.00 | 3 | 1015.4 |
| 20260510205227 | 69 | 301 | 2.6 | 8.7 | 0.00 | 0.00 | 0.00 | 3 | 1015.4 |
| 20260510204227 | 70 | 194 | 0.9 | 6.1 | 0.00 | 0.00 | 0.00 | 3 | 1015.7 |
| 20260510203336 | 69 | 353 | 0.9 | 9.6 | 0.00 | 0.00 | 0.00 | 1 | 1015.8 |
| 20260510203227 | 69 | 353 | 0.9 | 9.6 | 0.00 | 0.00 | 0.00 | 1 | 1015.8 |
| 20260510202227 | 68 | 218 | 2.6 | 7.8 | 0.00 | 0.00 | 0.00 | 3 | 1015.8 |
| 20260510201227 | 67 | 6 | 1.7 | 10.4 | 0.00 | 0.00 | 0.00 | 1 | 1015.9 |
| 20260510200227 | 67 | 150 | 1.7 | 7.8 | 0.00 | 0.00 | 0.00 | 2 | 1016.0 |
| 20260510195229 | 66 | 61 | 2.6 | 9.6 | 0.00 | 0.00 | 0.00 | 2 | 1015.9 |
| 20260510194227 | 65 | 56 | 1.7 | 8.7 | 0.00 | 0.00 | 0.00 | 4 | 1015.9 |
| 20260510193329 | 65 | 310 | 1.7 | 7.0 | 0.00 | 0.00 | 0.00 | 4 | 1016.0 |
| 20260510193227 | 65 | 310 | 1.7 | 7.0 | 0.00 | 0.00 | 0.00 | 4 | 1016.0 |
| 20260510192230 | 65 | 0 | 0.0 | 6.1 | 0.00 | 0.00 | 0.00 | 6 | 1016.0 |
| 20260510191354 | 65 | 186 | 2.6 | 7.8 | 0.00 | 0.00 | 0.00 | 3 | 1016.0 |
| 20260510191229 | 65 | 186 | 2.6 | 7.8 | 0.00 | 0.00 | 0.00 | 3 | 1016.0 |
| 20260510185425 | 65 | 253 | 7.0 | 13.0 | 0.00 | 0.00 | 0.00 | 5 | 1016.1 |
| 20260510184657 | 66 | 318 | 0.9 | 8.7 | 0.00 | 0.00 | 0.00 | 3 | 1016.0 |
| 20260510184426 | 66 | 318 | 0.9 | 8.7 | 0.00 | 0.00 | 0.00 | 3 | 1016.0 |
| 20260510183427 | 67 | 300 | 2.6 | 7.0 | 0.00 | 0.00 | 0.00 | 5 | 1016.1 |
| 20260510182426 | 67 | 299 | 1.7 | 6.1 | 0.00 | 0.00 | 0.00 | 6 | 1016.1 |
| 20260510181425 | 66 | 294 | 1.7 | 5.2 | 0.00 | 0.00 | 0.00 | 5 | 1016.0 |
| 20260510180426 | 65 | 281 | 1.7 | 5.2 | 0.00 | 0.00 | 0.00 | 6 | 1016.1 |
| 20260510175425 | 64 | 0 | 0.0 | 4.3 | 0.00 | 0.00 | 0.00 | 5 | 1016.0 |
| 20260510174425 | 63 | 250 | 2.6 | 8.7 | 0.00 | 0.00 | 0.00 | 8 | 1016.0 |
| 20260510173425 | 63 | 253 | 4.3 | 8.7 | 0.00 | 0.00 | 0.00 | 6 | 1015.9 |
| 20260510172425 | 63 | 261 | 2.6 | 7.0 | 0.00 | 0.00 | 0.00 | 7 | 1015.9 |
| 20260510171426 | 64 | 275 | 3.5 | 7.8 | 0.00 | 0.00 | 0.00 | 5 | 1015.8 |
| 20260510170425 | 63 | 38 | 1.7 | 4.3 | 0.00 | 0.00 | 0.00 | 5 | 1015.8 |
| 20260510165427 | 63 | 12 | 0.9 | 4.3 | 0.00 | 0.00 | 0.00 | 6 | 1015.6 |
| 20260510164427 | 63 | 1 | 0.9 | 3.5 | 0.00 | 0.00 | 0.00 | 5 | 1015.6 |
| 20260510163426 | 63 | 1 | 2.6 | 3.5 | 0.00 | 0.00 | 0.00 | 5 | 1015.5 |
| 20260510162425 | 62 | 0 | 0.0 | 2.6 | 0.00 | 0.00 | 0.00 | 6 | 1015.4 |
| 20260510161426 | 62 | 32 | 1.7 | 3.5 | 0.00 | 0.00 | 0.00 | 6 | 1015.4 |
| 20260510160425 | 62 | 90 | 1.7 | 4.3 | 0.00 | 0.00 | 0.00 | 5 | 1015.3 |
| 20260510155426 | 62 | 32 | 0.9 | 4.3 | 0.00 | 0.00 | 0.00 | 5 | 1015.2 |
| 20260510154426 | 62 | 62 | 0.9 | 5.2 | 0.00 | 0.00 | 0.00 | 6 | 1015.2 |
| 20260510153425 | 62 | 85 | 1.7 | 7.8 | 0.00 | 0.00 | 0.00 | 5 | 1015.1 |
| 20260510152426 | 62 | 64 | 1.7 | 7.0 | 0.00 | 0.00 | 0.00 | 5 | 1015.0 |
| 20260510151430 | 61 | 54 | 2.6 | 6.1 | 0.00 | 0.00 | 0.00 | 6 | 1015.0 |
| 20260510150425 | 61 | 29 | 0.9 | 4.3 | 0.00 | 0.00 | 0.00 | 7 | 1014.9 |
| 20260510145426 | 61 | 49 | 1.7 | 7.8 | 0.00 | 0.00 | 0.00 | 5 | 1014.9 |
| 20260510144425 | 60 | 38 | 1.7 | 7.8 | 0.00 | 0.00 | 0.00 | 4 | 1014.8 |
| 20260510143425 | 60 | 36 | 1.7 | 6.1 | 0.00 | 0.00 | 0.00 | 7 | 1014.8 |
| 20260510142425 | 60 | 53 | 3.5 | 8.7 | 0.00 | 0.00 | 0.00 | 5 | 1014.7 |
| 20260510141426 | 59 | 43 | 3.5 | 8.7 | 0.00 | 0.00 | 0.00 | 5 | 1014.6 |
| 20260510140426 | 59 | 44 | 3.5 | 7.8 | 0.00 | 0.00 | 0.00 | 4 | 1014.5 |
| 20260510135609 | 58 | 40 | 3.5 | 11.3 | 0.00 | 0.00 | 0.00 | 4 | 1014.4 |
| 20260510135425 | 58 | 40 | 3.5 | 11.3 | 0.00 | 0.00 | 0.00 | 4 | 1014.4 |
| 20260510134425 | 58 | 42 | 3.5 | 10.4 | 0.00 | 0.00 | 0.00 | 4 | 1014.3 |
| 20260510133425 | 57 | 24 | 5.2 | 12.2 | 0.00 | 0.00 | 0.00 | 3 | 1014.2 |
| 20260510132425 | 57 | 20 | 5.2 | 11.3 | 0.00 | 0.00 | 0.00 | 3 | 1014.1 |
| 20260510131425 | 57 | 4 | 4.3 | 13.9 | 0.00 | 0.00 | 0.00 | 2 | 1014.1 |
| 20260510130425 | 57 | 8 | 4.3 | 11.3 | 0.00 | 0.00 | 0.00 | 2 | 1014.0 |
| 20260510125426 | 57 | 354 | 4.3 | 11.3 | 0.00 | 0.00 | 0.00 | 1 | 1013.9 |
| 20260510124556 | 57 | 346 | 5.2 | 12.2 | 0.00 | 0.00 | 0.00 | 1 | 1013.9 |
| 20260510124426 | 57 | 346 | 5.2 | 12.2 | 0.00 | 0.00 | 0.00 | 1 | 1013.9 |
| 20260510123426 | 57 | 349 | 5.2 | 12.2 | 0.00 | 0.00 | 0.00 | 1 | 1013.8 |
| 20260510122425 | 57 | 342 | 5.2 | 11.3 | 0.00 | 0.00 | 0.00 | 1 | 1013.7 |
| 20260510121425 | 57 | 346 | 5.2 | 13.0 | 0.00 | 0.00 | 0.00 | 1 | 1013.7 |
| 20260510120425 | 57 | 352 | 7.8 | 13.9 | 0.00 | 0.00 | 0.00 | 1 | 1013.7 |
| 20260510115425 | 57 | 355 | 7.0 | 13.9 | 0.00 | 0.00 | 0.00 | 1013.6 | |
| 20260510114425 | 56 | 356 | 7.0 | 13.9 | 0.00 | 0.00 | 0.00 | 1 | 1013.5 |
| 20260510113425 | 56 | 10 | 7.8 | 14.8 | 0.00 | 0.00 | 0.00 | 1 | 1013.6 |
| 20260510112425 | 56 | 1 | 6.1 | 14.8 | 0.00 | 0.00 | 0.00 | 3 | 1013.5 |
| 20260510111425 | 56 | 11 | 7.8 | 16.5 | 0.00 | 0.00 | 0.00 | 3 | 1013.5 |
| 20260510110425 | 56 | 352 | 7.0 | 15.6 | 0.00 | 0.00 | 0.00 | 4 | 1013.6 |
| 20260510105425 | 56 | 351 | 6.1 | 14.8 | 0.00 | 0.00 | 0.00 | 3 | 1013.4 |
| 20260510104609 | 56 | 338 | 8.7 | 19.1 | 0.00 | 0.00 | 0.00 | 3 | 1013.3 |
| 20260510104425 | 56 | 338 | 8.7 | 19.1 | 0.00 | 0.00 | 0.00 | 3 | 1013.3 |
| 20260510103425 | 56 | 337 | 9.6 | 19.1 | 0.00 | 0.00 | 0.00 | 4 | 1013.3 |
| 20260510102607 | 56 | 335 | 10.4 | 19.1 | 0.00 | 0.00 | 0.00 | 4 | 1013.3 |
| 20260510102426 | 56 | 335 | 10.4 | 19.1 | 0.00 | 0.00 | 0.00 | 4 | 1013.3 |
| 20260510101425 | 56 | 323 | 11.3 | 20.0 | 0.00 | 0.00 | 0.00 | 4 | 1013.3 |
| 20260510100425 | 56 | 321 | 12.2 | 20.0 | 0.00 | 0.00 | 0.00 | 4 | 1013.2 |
| 20260510095426 | 56 | 321 | 11.3 | 19.1 | 0.00 | 0.00 | 0.00 | 4 | 1013.2 |
| 20260510094622 | 56 | 318 | 12.2 | 20.0 | 0.00 | 0.00 | 0.00 | 4 | 1013.3 |
| 20260510094427 | 56 | 318 | 12.2 | 20.0 | 0.00 | 0.00 | 0.00 | 4 | 1013.3 |
| 20260510093425 | 56 | 326 | 11.3 | 16.5 | 0.00 | 0.00 | 0.00 | 4 | 1013.1 |
| 20260510092427 | 56 | 328 | 10.4 | 18.2 | 0.00 | 0.00 | 0.00 | 4 | 1013.1 |
| 20260510091425 | 56 | 325 | 10.4 | 19.1 | 0.00 | 0.00 | 0.00 | 5 | 1013.1 |
| 20260510090425 | 56 | 325 | 11.3 | 20.0 | 0.00 | 0.00 | 0.00 | 5 | 1013.0 |
| 20260510085425 | 56 | 324 | 10.4 | 16.5 | 0.00 | 0.00 | 0.00 | 5 | 1012.9 |
| 20260510084614 | 56 | 325 | 11.3 | 20.0 | 0.00 | 0.00 | 0.00 | 5 | 1012.9 |
| 20260510084425 | 56 | 325 | 11.3 | 20.0 | 0.00 | 0.00 | 0.00 | 5 | 1012.9 |
| 20260510082728 | 57 | 333 | 11.3 | 18.2 | 0.00 | 0.00 | 0.00 | 5 | 1013.1 |
| 20260510081728 | 57 | 323 | 12.2 | 19.1 | 0.00 | 0.00 | 0.00 | 5 | 1013.1 |
| 20260510080628 | 57 | 320 | 10.4 | 19.1 | 0.00 | 0.00 | 0.00 | 5 | 1013.1 |
| 20260510075627 | 57 | 319 | 11.3 | 20.0 | 0.00 | 0.00 | 0.00 | 5 | 1013.1 |
| 20260510074808 | 57 | 324 | 10.4 | 18.2 | 0.00 | 0.00 | 0.00 | 5 | 1013.2 |
| 20260510074627 | 57 | 324 | 10.4 | 18.2 | 0.00 | 0.00 | 0.00 | 5 | 1013.2 |
| 20260510073627 | 57 | 321 | 10.4 | 17.4 | 0.00 | 0.00 | 0.00 | 5 | 1013.2 |
| 20260510072627 | 57 | 329 | 10.4 | 16.5 | 0.00 | 0.00 | 0.00 | 5 | 1013.3 |
| 20260510071627 | 57 | 320 | 10.4 | 16.5 | 0.00 | 0.00 | 0.00 | 4 | 1013.4 |
| 20260510070627 | 57 | 320 | 9.6 | 16.5 | 0.00 | 0.00 | 0.00 | 4 | 1013.4 |
| 20260510065627 | 58 | 321 | 11.3 | 19.1 | 0.00 | 0.00 | 0.00 | 4 | 1013.4 |
| 20260510064627 | 58 | 323 | 10.4 | 17.4 | 0.00 | 0.00 | 0.00 | 4 | 1013.3 |
| 20260510063627 | 58 | 325 | 10.4 | 17.4 | 0.00 | 0.00 | 0.00 | 3 | 1013.3 |
| 20260510062627 | 58 | 327 | 9.6 | 14.8 | 0.00 | 0.00 | 0.00 | 3 | 1013.3 |
| 20260510061627 | 58 | 327 | 9.6 | 15.6 | 0.00 | 0.00 | 0.00 | 3 | 1013.3 |
| 20260510060629 | 58 | 326 | 8.7 | 14.8 | 0.00 | 0.00 | 0.00 | 3 | 1013.3 |
| 20260510055631 | 58 | 323 | 9.6 | 17.4 | 0.00 | 0.00 | 0.00 | 3 | 1013.2 |
| 20260510054628 | 58 | 321 | 8.7 | 16.5 | 0.00 | 0.00 | 0.00 | 4 | 1013.3 |
| 20260510053627 | 58 | 324 | 10.4 | 16.5 | 0.00 | 0.00 | 0.00 | 4 | 1013.3 |
| 20260510052627 | 58 | 320 | 9.6 | 15.6 | 0.00 | 0.00 | 0.00 | 5 | 1013.3 |
| 20260510051627 | 58 | 324 | 8.7 | 18.2 | 0.00 | 0.00 | 0.00 | 5 | 1013.3 |
| 20260510050627 | 58 | 316 | 9.6 | 15.6 | 0.00 | 0.00 | 0.00 | 6 | 1013.4 |
| 20260510045627 | 58 | 322 | 9.6 | 15.6 | 0.00 | 0.00 | 0.00 | 7 | 1013.3 |
| 20260510044627 | 58 | 323 | 8.7 | 14.8 | 0.00 | 0.00 | 0.00 | 7 | 1013.2 |
| 20260510043627 | 59 | 314 | 10.4 | 14.8 | 0.00 | 0.00 | 0.00 | 7 | 1013.2 |
| 20260510042627 | 59 | 312 | 9.6 | 13.0 | 0.00 | 0.00 | 0.00 | 7 | 1013.2 |
| 20260510041627 | 59 | 312 | 8.7 | 14.8 | 0.00 | 0.00 | 0.00 | 7 | 1013.2 |
| 20260510040629 | 58 | 309 | 9.6 | 15.6 | 0.00 | 0.00 | 0.00 | 7 | 1013.0 |
| 20260510035627 | 59 | 304 | 10.4 | 16.5 | 0.00 | 0.00 | 0.00 | 6 | 1013.0 |
| 20260510034627 | 59 | 305 | 9.6 | 16.5 | 0.00 | 0.00 | 0.00 | 6 | 1013.0 |
| 20260510033627 | 59 | 305 | 11.3 | 16.5 | 0.00 | 0.00 | 0.00 | 6 | 1012.9 |
| 20260510032627 | 59 | 305 | 10.4 | 18.2 | 0.00 | 0.00 | 0.00 | 6 | 1012.7 |
| 20260510031628 | 59 | 307 | 9.6 | 15.6 | 0.00 | 0.00 | 0.00 | 6 | 1012.6 |
| 20260510030627 | 59 | 306 | 11.3 | 16.5 | 0.00 | 0.00 | 0.00 | 6 | 1012.6 |
| 20260510025627 | 59 | 302 | 10.4 | 18.2 | 0.00 | 0.00 | 0.00 | 5 | 1012.5 |
| 20260510024629 | 59 | 304 | 10.4 | 15.6 | 0.00 | 0.00 | 0.00 | 6 | 1012.4 |
| 20260510023627 | 59 | 307 | 9.6 | 14.8 | 0.00 | 0.00 | 0.00 | 6 | 1012.3 |
| 20260510022627 | 59 | 304 | 8.7 | 13.9 | 0.00 | 0.00 | 0.00 | 6 | 1012.3 |
| 20260510021627 | 60 | 299 | 9.6 | 14.8 | 0.00 | 0.00 | 0.00 | 6 | 1012.2 |
| 20260510020633 | 60 | 305 | 7.8 | 19.1 | 0.00 | 0.00 | 0.00 | 6 | 1012.3 |
| 20260510015722 | 60 | 301 | 6.1 | 15.6 | 0.00 | 0.00 | 0.00 | 5 | 1012.2 |
| 20260510015627 | 60 | 301 | 6.1 | 15.6 | 0.00 | 0.00 | 0.00 | 5 | 1012.2 |
| 20260510014627 | 61 | 317 | 7.0 | 17.4 | 0.00 | 0.00 | 0.00 | 5 | 1012.2 |
| 20260510013727 | 61 | 283 | 13.9 | 20.9 | 0.00 | 0.00 | 0.00 | 4 | 1012.1 |
| 20260510013627 | 61 | 283 | 13.9 | 20.9 | 0.00 | 0.00 | 0.00 | 4 | 1012.1 |
| 20260510012628 | 61 | 273 | 7.8 | 20.9 | 0.00 | 0.00 | 0.00 | 4 | 1012.0 |
| 20260510011627 | 62 | 306 | 7.8 | 20.9 | 0.00 | 0.00 | 0.00 | 5 | 1012.0 |
| 20260510010629 | 62 | 269 | 7.0 | 18.2 | 0.00 | 0.00 | 0.00 | 4 | 1012.0 |
| 20260510005627 | 63 | 283 | 10.4 | 21.7 | 0.00 | 0.00 | 0.00 | 4 | 1012.0 |
| 20260510004627 | 63 | 298 | 6.1 | 16.5 | 0.00 | 0.00 | 0.00 | 4 | 1012.2 |
| 20260510003628 | 63 | 298 | 6.1 | 14.8 | 0.00 | 0.00 | 0.00 | 5 | 1012.2 |
| 20260510002628 | 63 | 262 | 8.7 | 21.7 | 0.00 | 0.00 | 0.00 | 3 | 1012.2 |
| 20260510001628 | 64 | 266 | 7.8 | 21.7 | 0.00 | 0.00 | 0.00 | 4 | 1012.2 |
| 20260510000627 | 64 | 285 | 5.2 | 21.7 | 0.00 | 0.00 | 0.00 | 5 | 1012.2 |
| 20260509235628 | 65 | 267 | 7.0 | 18.2 | 0.00 | 0.00 | 0.00 | 4 | 1012.2 |
| 20260509234628 | 64 | 273 | 6.1 | 17.4 | 0.00 | 0.00 | 0.00 | 4 | 1012.2 |
| 20260509233627 | 64 | 285 | 9.6 | 16.5 | 0.00 | 0.00 | 0.00 | 5 | 1012.3 |
| 20260509232628 | 64 | 248 | 6.1 | 16.5 | 0.00 | 0.00 | 0.00 | 4 | 1012.3 |
| 20260509231627 | 65 | 274 | 11.3 | 20.9 | 0.00 | 0.00 | 0.00 | 3 | 1012.3 |
| 20260509230627 | 65 | 228 | 1.7 | 19.1 | 0.00 | 0.00 | 0.00 | 3 | 1012.3 |
| 20260509225627 | 64 | 267 | 2.6 | 18.2 | 0.00 | 0.00 | 0.00 | 3 | 1012.5 |
| 20260509224628 | 65 | 283 | 8.7 | 16.5 | 0.00 | 0.00 | 0.00 | 5 | 1012.6 |